When you browse on this site, cookies collect data to enhance your experience and personalize the content and advertising you see.
Visit our Privacy Policy to learn more. By continuing to use the site, you agree to this use of cookies and data.
  • In Hungary
  • List of Countries
  • For 7 days
  • Water Temperature
  • Weather Map
  • News
  • Weather Widgets
  • user-avatar
    Login

    Hourly Weather Alajuela

    Today, 17 November, Sunday

    Time Temperature Precipitation Wind Pressure Humidity
    00:00 +20°C° 0 mm 1 mps 678 mmHg 96%
    01:00 +20°C° 0 mm 1 mps 678 mmHg 96%
    02:00 +20°C° 0 mm 1 mps 678 mmHg 95%
    03:00 +20°C° 0 mm 1 mps 677 mmHg 95%
    04:00 +20°C° 0 mm 1 mps 678 mmHg 95%
    05:00 +20°C° 0 mm 1 mps 678 mmHg 95%
    06:00 +21°C° 0 mm 1 mps 679 mmHg 95%
    07:00 +22°C° 0.1 mm 1 mps 679 mmHg 91%
    08:00 +24°C° 0.1 mm 1 mps 680 mmHg 86%
    09:00 +25°C° 0.1 mm 1 mps 681 mmHg 82%
    10:00 +25°C° 1.4 mm 1 mps 680 mmHg 84%
    11:00 +25°C° 1.4 mm 1 mps 680 mmHg 86%
    12:00 +25°C° 1.4 mm 1 mps 679 mmHg 88%
    13:00 +25°C° 2.1 mm 1 mps 679 mmHg 89%
    14:00 +25°C° 2.1 mm 1 mps 678 mmHg 90%
    15:00 +24°C° 2.1 mm 1 mps 678 mmHg 92%
    16:00 +23°C° 0.8 mm 1 mps 678 mmHg 94%
    17:00 +22°C° 0.8 mm 1 mps 678 mmHg 95%
    18:00 +22°C° 0.8 mm 1 mps 679 mmHg 97%
    19:00 +21°C° 0.1 mm 1 mps 679 mmHg 97%
    20:00 +21°C° 0.1 mm 1 mps 679 mmHg 96%
    21:00 +21°C° 0.1 mm 1 mps 680 mmHg 96%
    22:00 +20°C° 0 mm 1 mps 679 mmHg 96%
    23:00 +20°C° 0 mm 1 mps 679 mmHg 95%

    Tomorrow, 18 November, Monday

    Time Temperature Precipitation Wind Pressure Humidity
    00:00 +20°C° 0 mm 1 mps 679 mmHg 95%
    01:00 +18°C° 0 mm 2 mps 678 mmHg 94%
    02:00 +18°C° 0 mm 2 mps 678 mmHg 93%
    03:00 +17°C° 0 mm 2 mps 678 mmHg 93%
    04:00 +18°C° 0.3 mm 2 mps 678 mmHg 93%
    05:00 +18°C° 0.3 mm 2 mps 679 mmHg 93%
    06:00 +18°C° 0.3 mm 2 mps 679 mmHg 94%
    07:00 +21°C° 0.1 mm 1 mps 680 mmHg 89%
    08:00 +22°C° 0.1 mm 1 mps 681 mmHg 85%
    09:00 +24°C° 0.1 mm 1 mps 681 mmHg 80%
    10:00 +25°C° 0.1 mm 1 mps 681 mmHg 78%
    11:00 +25°C° 0.1 mm 1 mps 681 mmHg 76%
    12:00 +26°C° 0.1 mm 1 mps 680 mmHg 74%
    13:00 +25°C° 0.6 mm 1 mps 680 mmHg 78%
    14:00 +25°C° 0.6 mm 1 mps 679 mmHg 82%
    15:00 +24°C° 0.6 mm 1 mps 678 mmHg 87%
    16:00 +23°C° 0.4 mm 1 mps 679 mmHg 90%
    17:00 +22°C° 0.4 mm 1 mps 679 mmHg 93%
    18:00 +21°C° 0.4 mm 1 mps 679 mmHg 97%
    19:00 +21°C° 0.1 mm 1 mps 679 mmHg 96%
    20:00 +21°C° 0.1 mm 1 mps 680 mmHg 96%
    21:00 +21°C° 0.1 mm 1 mps 680 mmHg 96%
    22:00 +21°C° 0.1 mm 1 mps 680 mmHg 96%
    23:00 +20°C° 0.1 mm 1 mps 680 mmHg 96%

    Day after tomorrow, 19 November, Tuesday

    Time Temperature Precipitation Wind Pressure Humidity
    00:00 +20°C° 0.1 mm 1 mps 679 mmHg 96%
    01:00 +20°C° 0.1 mm 1 mps 679 mmHg 96%
    02:00 +20°C° 0.1 mm 1 mps 679 mmHg 96%
    03:00 +20°C° 0.1 mm 1 mps 679 mmHg 96%
    04:00 +20°C° 0.3 mm 1 mps 679 mmHg 96%
    05:00 +21°C° 0.3 mm 1 mps 679 mmHg 96%
    06:00 +21°C° 0.3 mm 1 mps 680 mmHg 96%
    07:00 +21°C° 0.3 mm 1 mps 680 mmHg 94%
    08:00 +22°C° 0.3 mm 1 mps 681 mmHg 92%
    09:00 +23°C° 0.3 mm 1 mps 681 mmHg 90%
    10:00 +24°C° 0.2 mm 1 mps 681 mmHg 85%
    11:00 +24°C° 0.2 mm 1 mps 681 mmHg 81%
    12:00 +25°C° 0.2 mm 1 mps 680 mmHg 77%
    13:00 +25°C° 0.8 mm 1 mps 680 mmHg 81%
    14:00 +25°C° 0.8 mm 1 mps 680 mmHg 85%
    15:00 +24°C° 0.8 mm 1 mps 679 mmHg 89%
    16:00 +23°C° 0.8 mm 1 mps 680 mmHg 92%
    17:00 +22°C° 0.8 mm 1 mps 680 mmHg 94%
    18:00 +22°C° 0.8 mm 1 mps 680 mmHg 97%
    19:00 +21°C° 0.2 mm 1 mps 680 mmHg 97%
    20:00 +21°C° 0.2 mm 1 mps 680 mmHg 97%
    21:00 +21°C° 0.2 mm 1 mps 681 mmHg 96%
    22:00 +21°C° 0 mm 1 mps 681 mmHg 96%
    23:00 +21°C° 0 mm 1 mps 680 mmHg 96%

    20 November, Wednesday

    Time Temperature Precipitation Wind Pressure Humidity
    00:00 +20°C° 0 mm 1 mps 680 mmHg 96%
    01:00 +20°C° 0 mm 1 mps 680 mmHg 96%
    02:00 +20°C° 0 mm 1 mps 680 mmHg 95%
    03:00 +20°C° 0 mm 1 mps 679 mmHg 95%
    04:00 +20°C° 0.2 mm 1 mps 680 mmHg 95%
    05:00 +20°C° 0.2 mm 1 mps 680 mmHg 96%
    06:00 +19°C° 0.2 mm 2 mps 680 mmHg 96%
    07:00 +21°C° 0.3 mm 1 mps 681 mmHg 93%
    08:00 +22°C° 0.3 mm 1 mps 681 mmHg 90%
    09:00 +23°C° 0.3 mm 1 mps 682 mmHg 88%
    10:00 +23°C° 0.4 mm 1 mps 681 mmHg 88%
    11:00 +24°C° 0.4 mm 1 mps 681 mmHg 88%
    12:00 +24°C° 0.4 mm 1 mps 681 mmHg 88%
    13:00 +24°C° 0.9 mm 1 mps 680 mmHg 89%
    14:00 +24°C° 0.9 mm 1 mps 680 mmHg 90%
    15:00 +23°C° 0.9 mm 1 mps 679 mmHg 91%
    16:00 +23°C° 0.4 mm 1 mps 680 mmHg 93%
    17:00 +22°C° 0.4 mm 1 mps 680 mmHg 95%
    18:00 +21°C° 0.4 mm 1 mps 680 mmHg 97%
    19:00 +21°C° 0 mm 1 mps 680 mmHg 97%
    20:00 +20°C° 0 mm 1 mps 680 mmHg 96%
    21:00 +20°C° 0 mm 1 mps 681 mmHg 96%
    22:00 +20°C° 0 mm 1 mps 680 mmHg 95%
    23:00 +19°C° 0 mm 1 mps 680 mmHg 95%

    21 November, Thursday

    Time Temperature Precipitation Wind Pressure Humidity
    00:00 +19°C° 0 mm 1 mps 680 mmHg 94%
    01:00 +19°C° 0 mm 1 mps 679 mmHg 93%
    02:00 +18°C° 0 mm 1 mps 679 mmHg 93%
    03:00 +18°C° 0 mm 1 mps 679 mmHg 92%
    04:00 +18°C° 0 mm 1 mps 680 mmHg 91%
    05:00 +18°C° 0 mm 1 mps 680 mmHg 91%
    06:00 +18°C° 0 mm 1 mps 680 mmHg 91%
    07:00 +21°C° 0 mm 1 mps 681 mmHg 80%
    08:00 +24°C° 0 mm 1 mps 682 mmHg 69%
    09:00 +27°C° 0 mm 1 mps 683 mmHg 58%
    10:00 +27°C° 0 mm 1 mps 682 mmHg 56%
    11:00 +28°C° 0 mm 2 mps 682 mmHg 54%
    12:00 +29°C° 0 mm 2 mps 682 mmHg 52%
    13:00 +27°C° 0.2 mm 2 mps 681 mmHg 60%
    14:00 +26°C° 0.2 mm 2 mps 680 mmHg 68%
    15:00 +25°C° 0.2 mm 2 mps 680 mmHg 77%
    16:00 +24°C° 0.2 mm 1 mps 680 mmHg 84%
    17:00 +22°C° 0.2 mm 1 mps 680 mmHg 91%
    18:00 +19°C° 0.2 mm 0 mps 680 mmHg 98%
    19:00 +21°C° 0 mm 1 mps 680 mmHg 97%
    20:00 +20°C° 0 mm 1 mps 680 mmHg 96%
    21:00 +20°C° 0 mm 1 mps 681 mmHg 96%
    22:00 +19°C° 0 mm 1 mps 680 mmHg 94%
    23:00 +19°C° 0 mm 1 mps 680 mmHg 92%

    22 November, Friday

    Time Temperature Precipitation Wind Pressure Humidity
    00:00 +18°C° 0 mm 1 mps 679 mmHg 91%
    01:00 +18°C° 0 mm 1 mps 679 mmHg 89%
    02:00 +16°C° 0 mm 1 mps 679 mmHg 87%
    03:00 +16°C° 0 mm 1 mps 678 mmHg 84%
    04:00 +16°C° 0 mm 1 mps 679 mmHg 83%
    05:00 +16°C° 0 mm 1 mps 679 mmHg 82%
    06:00 +16°C° 0 mm 2 mps 679 mmHg 81%
    07:00 +20°C° 0 mm 1 mps 681 mmHg 70%
    08:00 +23°C° 0 mm 1 mps 682 mmHg 60%
    09:00 +27°C° 0 mm 1 mps 683 mmHg 49%
    10:00 +27°C° 0 mm 1 mps 682 mmHg 50%
    11:00 +28°C° 0 mm 1 mps 682 mmHg 50%
    12:00 +28°C° 0 mm 2 mps 682 mmHg 50%
    13:00 +27°C° 0.1 mm 2 mps 681 mmHg 58%
    14:00 +26°C° 0.1 mm 2 mps 680 mmHg 67%
    15:00 +25°C° 0.1 mm 2 mps 679 mmHg 75%
    16:00 +24°C° 0.2 mm 1 mps 679 mmHg 83%
    17:00 +22°C° 0.2 mm 1 mps 679 mmHg 91%
    18:00 +19°C° 0.2 mm 0 mps 679 mmHg 99%
    19:00 +19°C° 0 mm 0 mps 679 mmHg 98%
    20:00 +19°C° 0 mm 0 mps 680 mmHg 98%
    21:00 +18°C° 0 mm 0 mps 680 mmHg 97%
    22:00 +20°C° 0 mm 1 mps 680 mmHg 97%
    23:00 +20°C° 0 mm 1 mps 680 mmHg 96%
    Show more